Погода в Осташкове

Погода в Осташкове : погода сейчас, прогноз погоды и архив. Всё, что Вы хотите узнать о погоде в Осташкове!

Поиск расширенной информации на нашем сайте:

Другие новости

Новости СМИ2

Главная страница сайта

Новости сайта

03.07.2017

Напоминаем, что на нашем специализированном сайте Метеоцентр.Азия вы можете получить высокодетализированные автоматические прогнозы погоды по пунктам России, СНГ и мира в авиационном формате (включающие направление и скорость ветра, видимость, явления погоды, количество и форму облачности, нижнюю и верхнюю границу облачности).


Погода в Осташкове - сегодня

Время (UTC), дата Ветер
(°,м/с) 
Видим.   Явления Облачность Т
(°С)
Тd
(°С)
f(%) Тe
(°С)
Pmin
(гПа)
dP
(гПа)
Po
(мм)
O2
(г/м3)
Тmin Tmax R s Состояние
почвы
15 19.10.17 270 (З) 4000 м  дымка{ливн. осадки}  8/8 600 м 
[Sc]
+5.3 +3.2 86 +4  1017.5  743  293      0.3     
18 19.10.17 260 (З) 4000 м  дымка{ливн. осадки}  9/9 600 м 
[Sc]
+4.5 +3.2 91 +4  1018.4  0.8  744  294    +7.3  0.6     
21 19.10.17 300 (СЗ) 4000 м  дымка  8/8 600 м 
[Sc]
+4 +3.1 94 +4  1019.6  1.1  745  295           
00 20.10.17 260 (З) 4000 м  дымка{ливн. осадки}  8/8 600 м 
[Sc]
+2.4 +2.2 99 +3  1020.8  746  297           
03 20.10.17 260 (З) 4000 м  дымка  8/8 600 м 
[Sc]
+2.1 +2.1 100 +3  1021.5  0.6  746  298  +2    0.6     
06 20.10.17 240 (ЮЗ) 4000 м  дымка  8/0 средняя 
[Ac trans]
+2.1 +2.1 100 +3  1022.1  0.6  746  298  +1.6    0.3    влажная 
09 20.10.17 270 (З) 4000 м  дымка  8/6 600 м средняя 
[Sc|Ac trans]
+4.7 +2.9 88 +4  1022.2  0.4  747  295           
12 20.10.17 300 (СЗ) 10 км    8/6 600 м средняя 
[Sc|Ac trans]
+4.9 +2.5 84 +4  1022.2  747  295           
15 20.10.17 250 (З) 4000 м  дымка  8/8 600 м 
[Sc]
+3.4 +1.9 90 +4  1022.6  0.2  747  297           
18 20.10.17 260 (З) 4000 м  дымка  6/6 600 м 
[Sc]
+1.3 +1.1 99 +1  1022.9  0.2  747  299    +5.5       
21 20.10.17 270 (З) 4000 м  дымка  8/8 600 м 
[Sc]
+1.8 +1.5 98 +1  1022.6  -0.3  747  299           
00 21.10.17 280 (З) 4000 м  дымка  8/8 600 м 
[Sc]
+2.2 +1.7 96 +2  1022.1  -0.4  747  298           
03 21.10.17 320 (СЗ) 4000 м  дымка  8/8 600 м 
[Sc]
+2.4 +1.3 92 +2  1022.1  -0.1  746  298  -0.2         
06 21.10.17 010 (С) 4000 м  дымка{ливн. осадки}  6/6 600 м 
[Sc]
+1 -1 86 -1  1022.9  0.7  747  300  -0.2    0.3    влажная 
09 21.10.17 360 (С) 10 км    8/8 600 м 
[Sc]
+1.5 -2.6 74 1023.2  0.3  747  300           
12 21.10.17 340 (С) 10 км    8/8 600 м 
[Sc]
+1.8 -2.8 71 1022.2  -0.9  747  299           
15 21.10.17 350 (С) 10 км    6/6 600 м 
[Sc]
+0.7 -4.7 67 1021.9  -0.4  746  300      0.3     
18 21.10.17 010 (С) 10 км    4/0 средняя 
[Ac trans]
-0.1 -4.6 72 -1  1022.1  0.1  746  301    +2.7       
21 21.10.17 тихо ()   10 км    3/0 средняя 
[Ac trans]
-2 -4.3 84 -2  1022.3  746  303           
00 22.10.17 250 (З) 4000 м  дымка  3/0 средняя 
[Ac trans]
-3 -4 93 -3  1022.2  -0.2  746  304           
03 22.10.17 220 (ЮЗ) 4000 м  дымка  ясно 
-3.7 -4.3 96 -3  1021.7  -0.6  746  305  -3.9         
06 22.10.17 240 (ЮЗ) 4000 м  дымка  3/0 средняя 
[Ac trans]
-2.6 -2.6 100 -4  1021.1  -0.6  745  304  -6.1        замёрзшая 
09 22.10.17 260 (З) 10 км    6/4 600 м средняя 
[Sc|Ac trans]
+0.8 -2.1 81 -1  1020  -0.8  745  299           
12 22.10.17 250 (З) 10 км    9/9 600 м 
[Sc]
+0.8 -2.4 79 -1  1019  -0.9  744  299           
15 22.10.17 250 (З) 10 км    9/9 600 м 
[Sc]
+0.2 -2.4 83 -2  1018.2  -0.9  743  300           
Время (UTC), дата Ветер
(°,м/с) 
Видим.   Явления Облачность Т
(°С)
Тd
(°С)
f(%) Тe
(°С)
Pmin
(гПа)
dP
(гПа)
Po
(мм)
O2
(г/м3)
Тmin Tmax R s Состояние
почвы

Для получения пояснительной информации подведите курсор к названию столбца.

ПОГОДА в Осташкове - архив

Всё, что Вы хотите узнать о погоде в Осташкове - удобно и подробно!

Выберите нужную дату (начиная с 1 января 2015* года) и нажмите кнопку "Найти".
Будут отображены архивные сводки погоды по пункту Осташков, начиная с указанной даты.


Отображать данные в формате CSV (для использования в таблицах Excel)


Внимание! Наш архив погоды предназначен исключительно для личного некоммерческого использования в познавательных целях. Если Вам необходимы официальные справки о состоянии погоды (для производственных, юридических, коммерческих и т.п. целей), обращайтесь в органы Росгидромета.

*Примечание: данная дата относится к архиву по метеостанциям СССР (Россия, СНГ, Балтия).
Архив по метеостанциям Зарубежной Европы и Азии (кроме Китая) хранится 10 дней, по другим регионам земного шара (Китай, Африка, Америка, Австралия, Океания) - 1 день.

Осташков - район местоположения метеостанции


Название, широта, долгота, высота метеостанции:
Осташков 57.1°ш. 33.1°д. 218 м над ур. моря [Российская Федерация]

Дополнительная информация

В oтличие oт бoльшинства пoгoдных сайтoв мы публикуем пoдрoбную метеoинфoрмацию в детальнoм прoфессиoнальнoм фoрмате.

Характеристики температуры и влажнoсти вoздуха измеряются на высoте 2 м в тени вдали oт зданий и деревьев.
Скoрoсть ветра измеряется на высoте 10 м (на урoвне рoста челoвека скoрoсть ветра ниже в 1.5-2 раза). Если метеoстанция нахoдится в гoрoде или в лесу, тo скoрoсть ветра занижена на 2-4 м/с пo сравнению с oткрытым местoм. Скoрoсть ветра над акватoриями крупных рек и oзёр, а также на вершинах хoлмoв на 2-5 м/с выше, чем в oбычных услoвиях.
Атмoсфернoе давление в разных тoчках местнoсти мoжет значительнo oтличаться oт давления на метеoстанции, в зависимoсти oт услoвий рельефа (при пoдъёме на 10 м давление пoнижается примернo на 1 мм рт.ст.).